{"data":{"norad_id":51888,"epoch":"2026-05-24T22:36:55.049184Z","epoch_age_seconds":80810,"freshness":"FRESH","line1":"1 51888U 22022AN  26144.94230381  .00001586  00000+0  11775-3 0  9998","line2":"2 51888  53.2152  16.8096 0001476  95.5689 264.5471 15.08835343234761","mean_motion":15.08835343,"eccentricity":0.0001476,"inclination_deg":53.2152,"raan_deg":16.8096,"arg_perigee_deg":95.5689,"mean_anomaly_deg":264.5471,"bstar":0.00011775,"rev_number":23476,"period_min":95.437849244495,"perigee_km":538.73654234021,"apogee_km":540.7787048331,"semimajor_km":6917.8946235867,"source":"CELESTRAK","updated_at":"2026-05-25T13:38:16.988000Z"}}